This demonstration page uses our WeatherBlox Daily Observations layout. Learn more.

Left ArrowRight Arrow

Hourly Observations for June 3, 2019

Temp ( °F °C ) Dew Point ( °F °C ) Humidity (%) Winds ( mph kmh ) Pressure ( in mb ) Visibility ( mi km ) Precip ( " mm )
12:53 am 00:53 Clear 52 11.1 46 7.8 80 80 N N/A 30.01 1016 10 16 N/A
1:53 am 01:53 Clear 51 10.6 47 8.3 86 86 N N/A 30.01 1016 10 16 N/A
2:53 am 02:53 Clear 49 9.4 44 6.7 83 83 N N/A 30.02 1017 10 16 N/A
3:53 am 03:53 Clear 48 8.9 44 6.7 86 86 N N/A 30.02 1017 10 16 N/A
4:53 am 04:53 Clear 49 9.4 45 7.2 86 86 N N/A 30.05 1018 10 16 N/A
5:53 am 05:53 Clear 48 8.9 44 6.7 86 86 N N/A 30.06 1018 10 16 N/A
6:53 am 06:53 Sunny 48 8.9 46 7.8 93 93 N N/A 30.09 1019 10 16 N/A
7:53 am 07:53 Sunny 53 11.7 49 9.4 86 86 N N/A 30.11 1020 10 16 N/A
8:53 am 08:53 Sunny 58 14.4 49 9.4 72 72 N N/A 30.12 1020 10 16 N/A
9:53 am 09:53 Sunny 63 17.2 44 6.7 50 50 N N/A 30.14 1021 10 16 N/A
10:53 am 10:53 Sunny 66 18.9 43 6.1 43 43 E 3 6 30.15 1021 10 16 N/A
11:53 am 11:53 Sunny 68 20 42 5.6 39 39 N N/A 30.15 1021 10 16 N/A
12:53 pm 12:53 Sunny 69 20.6 44 6.7 41 41 VRB 5 7 30.14 1021 10 16 N/A
1:53 pm 13:53 Sunny 71 21.7 45 7.2 39 39 VRB 6 9 30.14 1021 10 16 N/A
2:53 pm 14:53 Sunny 72 22.2 48 8.9 43 43 SW 7 11 30.13 1020 10 16 N/A
3:53 pm 15:53 Sunny 73 22.8 46 7.8 38 38 VRB 3 6 30.13 1020 10 16 N/A
4:53 pm 16:53 Sunny 74 23.3 48 8.9 40 40 N N/A 30.11 1020 10 16 N/A
5:53 pm 17:53 Sunny 74 23.3 49 9.4 41 41 WNW 8 13 30.10 1019 10 16 N/A
6:53 pm 18:53 Sunny 74 23.3 50 10 43 43 VRB 3 6 30.09 1019 10 16 N/A
7:53 pm 19:53 Sunny 71 21.7 54 12.2 55 55 N N/A 30.09 1019 10 16 N/A
8:53 pm 20:53 Sunny 64 17.8 57 13.9 78 78 N N/A 30.10 1019 10 16 N/A
9:53 pm 21:53 Clear 60 15.6 54 12.2 80 80 N N/A 30.11 1020 10 16 N/A
10:53 pm 22:53 Clear 58 14.4 55 12.8 90 90 N N/A 30.13 1020 10 16 N/A
11:53 pm 23:53 Clear 57 13.9 54 12.2 90 90 N N/A 30.12 1020 10 16 N/A

Powered by AerisWeather